Location: Mound City (historical)
(34.0564°N, 117.2656°W)
Time: 01:22:30
(UTC+00:00)

Cosmos 2237 - Pass Details

Date: 08 September 2024
Orbit: 848 x 854 km, 70.8° (Epoch: 03 October)

Event Time Altitude Azimuth Distance (km) Brightness Sun altitude
Rises 12:03:06 0° 332° (NNW) 3,415 7.3 -17.9°
Reaches altitude 10° 12:05:37 10° 327° (NNW) 2,475 6.5 -17.4°
Maximum altitude 12:11:04 49° 254° (WSW) 1,076 4.3 -16.3°
Drops below altitude 10° 12:16:29 10° 180° (S) 2,461 6.4 -15.3°
Sets 12:18:59 0° 175° (S) 3,392 7.2 -14.8°
